Terminal Aerodrome Forecast
Issued by NWS

Current Version | Previous Version | Graphics & Text | Print | Product List | Glossary On
Versions: 1 2 3 4 5 6 7 8 9 10 11 12 13 14 15 16 17 18 19 20 21 22 23 24 25 26 27 28 29 30 31 32 33 34 35 36
730
FTUS41 KRNK 260538
TAFLWB
TAF
KLWB 260538Z 2606/2706 00000KT 5SM BR OVC010
      TEMPO 2609/2613 2SM -DZ BR OVC007
     FM261500 19005KT 6SM HZ OVC015
     FM261900 21006KT P6SM VCSH BKN025 OVC050
     FM262200 24005KT 5SM TSRA OVC025CB
     FM270100 26004KT 3SM SHRA BR OVC015=

USA.gov is the U.S. government's official web portal to all federal, state and local government web resources and services.